Hourly Weather Działdowo

Today, 18 May, Tuesday

Time Temperature Precipitation Wind Pressure Humidity
00:00 +12°C° 0 mm 2 mps 738 mmHg 92%
01:00 +12°C° 0 mm 2 mps 738 mmHg 94%
02:00 +12°C° 0 mm 2 mps 738 mmHg 93%
03:00 +12°C° 0 mm 2 mps 738 mmHg 93%
04:00 +12°C° 0 mm 2 mps 738 mmHg 93%
05:00 +11°C° 0 mm 3 mps 738 mmHg 91%
06:00 +12°C° 0 mm 3 mps 739 mmHg 89%
07:00 +12°C° 0 mm 3 mps 739 mmHg 87%
08:00 +12°C° 0.1 mm 4 mps 739 mmHg 87%
09:00 +13°C° 0.1 mm 4 mps 739 mmHg 86%
10:00 +13°C° 0.1 mm 4 mps 739 mmHg 86%
11:00 +13°C° 0.1 mm 5 mps 739 mmHg 85%
12:00 +13°C° 0.1 mm 5 mps 739 mmHg 85%
13:00 +13°C° 0.1 mm 5 mps 740 mmHg 84%
14:00 +13°C° 0 mm 5 mps 740 mmHg 82%
15:00 +13°C° 0 mm 6 mps 740 mmHg 80%
16:00 +13°C° 0 mm 6 mps 740 mmHg 78%
17:00 +12°C° 0 mm 5 mps 740 mmHg 81%
18:00 +10°C° 0 mm 5 mps 740 mmHg 84%
19:00 +9°C° 0 mm 5 mps 740 mmHg 87%
20:00 +10°C° 0 mm 4 mps 741 mmHg 89%
21:00 +8°C° 0 mm 4 mps 741 mmHg 92%
22:00 +7°C° 0 mm 4 mps 741 mmHg 94%
23:00 +7°C° 0 mm 4 mps 741 mmHg 93%

Tomorrow, 19 May, Wednesday

Time Temperature Precipitation Wind Pressure Humidity
00:00 +7°C° 0 mm 4 mps 741 mmHg 93%
01:00 +7°C° 0 mm 4 mps 741 mmHg 92%
02:00 +7°C° 0 mm 3 mps 741 mmHg 93%
03:00 +7°C° 0 mm 3 mps 741 mmHg 94%
04:00 +7°C° 0 mm 3 mps 742 mmHg 95%
05:00 +7°C° 0 mm 4 mps 742 mmHg 90%
06:00 +8°C° 0 mm 4 mps 742 mmHg 85%
07:00 +11°C° 0 mm 4 mps 742 mmHg 79%
08:00 +12°C° 0.1 mm 4 mps 743 mmHg 76%
09:00 +13°C° 0.1 mm 4 mps 743 mmHg 72%
10:00 +14°C° 0.1 mm 4 mps 743 mmHg 68%
11:00 +14°C° 0.4 mm 4 mps 743 mmHg 72%
12:00 +13°C° 0.4 mm 4 mps 743 mmHg 77%
13:00 +13°C° 0.4 mm 3 mps 743 mmHg 81%
14:00 +13°C° 0.4 mm 3 mps 743 mmHg 78%
15:00 +14°C° 0.4 mm 4 mps 744 mmHg 74%
16:00 +14°C° 0.4 mm 4 mps 744 mmHg 71%
17:00 +13°C° 0.2 mm 3 mps 744 mmHg 75%
18:00 +11°C° 0.2 mm 3 mps 744 mmHg 79%
19:00 +10°C° 0.2 mm 3 mps 745 mmHg 83%
20:00 +9°C° 0 mm 2 mps 745 mmHg 84%
21:00 +7°C° 0 mm 2 mps 745 mmHg 85%
22:00 +6°C° 0 mm 2 mps 745 mmHg 86%
23:00 +6°C° 0 mm 2 mps 745 mmHg 88%

Day after tomorrow, 20 May, Thursday

Time Temperature Precipitation Wind Pressure Humidity
00:00 +5°C° 0 mm 2 mps 745 mmHg 90%
01:00 +4°C° 0 mm 3 mps 746 mmHg 92%
02:00 +4°C° 0 mm 3 mps 746 mmHg 92%
03:00 +4°C° 0 mm 2 mps 746 mmHg 92%
04:00 +4°C° 0 mm 2 mps 746 mmHg 92%
05:00 +5°C° 0 mm 3 mps 746 mmHg 87%
06:00 +8°C° 0 mm 3 mps 747 mmHg 82%
07:00 +8°C° 0 mm 4 mps 747 mmHg 77%
08:00 +11°C° 0 mm 4 mps 747 mmHg 71%
09:00 +13°C° 0 mm 5 mps 747 mmHg 64%
10:00 +14°C° 0 mm 5 mps 747 mmHg 58%
11:00 +15°C° 0 mm 5 mps 747 mmHg 56%
12:00 +15°C° 0 mm 5 mps 747 mmHg 54%
13:00 +16°C° 0 mm 5 mps 747 mmHg 51%
14:00 +15°C° 0 mm 5 mps 747 mmHg 55%
15:00 +15°C° 0 mm 5 mps 747 mmHg 58%
16:00 +15°C° 0 mm 5 mps 747 mmHg 61%
17:00 +13°C° 0.2 mm 5 mps 747 mmHg 69%
18:00 +12°C° 0.2 mm 4 mps 747 mmHg 76%
19:00 +10°C° 0.2 mm 4 mps 748 mmHg 83%
20:00 +8°C° 0 mm 4 mps 748 mmHg 86%
21:00 +7°C° 0 mm 3 mps 748 mmHg 88%
22:00 +6°C° 0 mm 2 mps 748 mmHg 90%
23:00 +5°C° 0 mm 2 mps 748 mmHg 90%

21 May, Friday

Time Temperature Precipitation Wind Pressure Humidity
00:00 +3°C° 0 mm 3 mps 748 mmHg 90%
01:00 +3°C° 0 mm 3 mps 748 mmHg 90%
02:00 +3°C° 0 mm 3 mps 748 mmHg 91%
03:00 +2°C° 0 mm 3 mps 748 mmHg 92%
04:00 +2°C° 0 mm 3 mps 748 mmHg 93%
05:00 +4°C° 0 mm 4 mps 748 mmHg 86%
06:00 +6°C° 0 mm 4 mps 748 mmHg 78%
07:00 +7°C° 0 mm 5 mps 749 mmHg 71%
08:00 +8°C° 0 mm 5 mps 748 mmHg 65%
09:00 +9°C° 0 mm 5 mps 748 mmHg 59%
10:00 +10°C° 0 mm 5 mps 748 mmHg 53%
11:00 +12°C° 0 mm 5 mps 748 mmHg 51%
12:00 +13°C° 0 mm 5 mps 748 mmHg 49%
13:00 +13°C° 0 mm 5 mps 747 mmHg 46%
14:00 +13°C° 0 mm 5 mps 747 mmHg 47%
15:00 +13°C° 0 mm 5 mps 747 mmHg 48%
16:00 +13°C° 0 mm 5 mps 746 mmHg 48%
17:00 +12°C° 0 mm 4 mps 746 mmHg 54%
18:00 +11°C° 0 mm 3 mps 746 mmHg 60%
19:00 +10°C° 0 mm 2 mps 746 mmHg 66%
20:00 +9°C° 0 mm 2 mps 746 mmHg 70%
21:00 +8°C° 0 mm 2 mps 746 mmHg 73%
22:00 +7°C° 0 mm 3 mps 746 mmHg 76%
23:00 +7°C° 0 mm 3 mps 745 mmHg 78%

22 May, Saturday

Time Temperature Precipitation Wind Pressure Humidity
00:00 +8°C° 0 mm 3 mps 745 mmHg 80%
01:00 +8°C° 0 mm 3 mps 745 mmHg 82%
02:00 +8°C° 0.3 mm 3 mps 744 mmHg 85%
03:00 +8°C° 0.3 mm 3 mps 744 mmHg 89%
04:00 +8°C° 0.3 mm 3 mps 744 mmHg 92%
05:00 +8°C° 0.1 mm 4 mps 744 mmHg 88%
06:00 +11°C° 0.1 mm 4 mps 743 mmHg 85%
07:00 +12°C° 0.1 mm 5 mps 743 mmHg 81%
08:00 +13°C° 0 mm 6 mps 743 mmHg 74%
09:00 +15°C° 0 mm 7 mps 743 mmHg 68%
10:00 +16°C° 0 mm 7 mps 742 mmHg 61%
11:00 +16°C° 0 mm 7 mps 742 mmHg 64%
12:00 +15°C° 0 mm 6 mps 742 mmHg 68%
13:00 +15°C° 0 mm 5 mps 742 mmHg 71%
14:00 +15°C° 0.1 mm 5 mps 742 mmHg 71%
15:00 +15°C° 0.1 mm 5 mps 742 mmHg 71%
16:00 +16°C° 0.1 mm 5 mps 742 mmHg 71%
17:00 +14°C° 0.8 mm 5 mps 742 mmHg 78%
18:00 +13°C° 0.8 mm 5 mps 743 mmHg 85%
19:00 +10°C° 0.8 mm 5 mps 743 mmHg 93%
20:00 +11°C° 0.7 mm 4 mps 743 mmHg 94%
21:00 +11°C° 0.7 mm 3 mps 743 mmHg 94%
22:00 +10°C° 0.7 mm 2 mps 743 mmHg 95%
23:00 +10°C° 0.1 mm 2 mps 743 mmHg 95%

23 May, Sunday

Time Temperature Precipitation Wind Pressure Humidity
00:00 +9°C° 0.1 mm 2 mps 743 mmHg 94%
01:00 +8°C° 0.1 mm 2 mps 743 mmHg 94%
02:00 +8°C° 0 mm 2 mps 743 mmHg 93%
03:00 +8°C° 0 mm 2 mps 743 mmHg 92%
04:00 +8°C° 0 mm 2 mps 743 mmHg 91%
05:00 +9°C° 0 mm 2 mps 743 mmHg 86%
06:00 +10°C° 0 mm 2 mps 743 mmHg 80%
07:00 +12°C° 0 mm 2 mps 744 mmHg 75%
08:00 +13°C° 0 mm 3 mps 744 mmHg 69%
09:00 +14°C° 0 mm 3 mps 744 mmHg 64%
10:00 +15°C° 0 mm 4 mps 744 mmHg 58%
11:00 +15°C° 0.3 mm 4 mps 744 mmHg 58%
12:00 +16°C° 0.3 mm 5 mps 744 mmHg 59%
13:00 +16°C° 0.3 mm 5 mps 744 mmHg 59%
14:00 +16°C° 0.3 mm 5 mps 744 mmHg 61%
15:00 +15°C° 0.3 mm 4 mps 744 mmHg 64%
16:00 +15°C° 0.3 mm 4 mps 744 mmHg 67%
17:00 +14°C° 0.2 mm 3 mps 745 mmHg 73%
18:00 +13°C° 0.2 mm 3 mps 745 mmHg 79%
19:00 +13°C° 0.2 mm 2 mps 745 mmHg 85%
20:00 +12°C° 0 mm 2 mps 745 mmHg 87%
21:00 +10°C° 0 mm 2 mps 746 mmHg 89%
22:00 +9°C° 0 mm 2 mps 746 mmHg 90%
23:00 +8°C° 0 mm 2 mps 746 mmHg 91%
Show more